Regional Weather Roundup
Issued by NWS

Home | Current Version | Previous Version | Graphics & Text | Print | Product List | Glossary On
Versions: 1 2 3 4 5 6 7 8 9 10 11 12 13 14 15 16 17 18 19 20 21 22 23 24 25 26 27 28 29 30 31 32 33 34 35 36 37 38 39 40 41 42 43 44 45 46 47 48 49 50
209
ASUS43 KLSX 060457
RWRMO

WEATHER SUMMARY FOR MISSOURI
NATIONAL WEATHER SERVICE SPRINGFIELD MO
1100 PM CST MON DEC 05 2016

NOTE: "FAIR" INDICATES FEW OR NO CLOUDS BELOW 12,000 FEET WITH NO
       SIGNIFICANT WEATHER AND/OR OBSTRUCTIONS TO VISIBILITY.
       CURRENT SKY AND/OR WEATHER CONDITIONS ARE NOT AVAILABLE FOR
       CHILLICOTHE AND FARMINGTON.

MOZ001>031-035>038-043-044-053-054-060600-
...NORTHERN AND WESTERN MISSOURI...

CITY           SKY/WX    TMP DP  RH WIND       PRES   REMARKS
KANSAS CTY INT CLEAR     35  29  78 SE5       29.77R
LEE`S SUMMIT   CLEAR     36  32  85 CALM      29.78R
ST JOSEPH      MOCLDY    34  31  88 S3        29.77R
CHILLICOTHE      N/A     32  31  96 CALM      29.80R

$$
MOZ066>068-077>081-088>096-101>105-060600-
...SOUTHWEST MISSOURI...

CITY           SKY/WX    TMP DP  RH WIND       PRES   REMARKS
SPRINGFIELD    CLOUDY    41  37  86 S8        29.73S
JOPLIN         CLOUDY    37  36  96 CALM      29.74S

$$
MOZ032>034-039>042-045>050-055>058-069>072-060600-
...CENTRAL MISSOURI...

CITY           SKY/WX    TMP DP  RH WIND       PRES   REMARKS
COLUMBIA       NOT AVBL
JEFFERSON CITY PTCLDY    36  33  89 E6        29.79S
SEDALIA        PTCLDY    34  32  92 SE5       29.77S WCI  30
WARRENSBURG    CLEAR     34  32  93 CALM      29.77R

$$
MOZ051-052-059>065-060600-
...EAST CENTRAL MISSOURI...

CITY           SKY/WX    TMP DP  RH WIND       PRES   REMARKS
ST LOUIS INTL  CLOUDY    40  34  79 E7        29.82F

$$
MOZ072>076-082>087-097>100-106>115-060600-
...SOUTH CENTRAL AND SOUTHEAST MISSOURI...

CITY           SKY/WX    TMP DP  RH WIND       PRES   REMARKS
CAPE GIRARDEAU CLOUDY    41  36  82 NE6       29.78F
POPLAR BLUFF   CLOUDY    41  38  89 N7        29.78F
WEST PLAINS    LGT RAIN  39  38  96 E5        29.75F FOG

$$



USA.gov is the U.S. government's official web portal to all federal, state and local government web resources and services.